Other Surface Observations
Issued by NWS

Home | Current Version | Previous Version | Text Only | Print | Product List | Glossary On
Versions: 1 2 3 4 5 6 7 8 9 10 11 12 13 14 15 16 17 18 19 20 21 22 23 24 25 26 27 28 29 30 31 32 33 34 35 36 37 38 39 40 41 42 43 44 45 46 47 48 49 50
000
SXUS52 KTAE 231218
OSOTAE
OSOTAE
North Florida/South Alabama/Southwest Georgia Weather Roundup
National Weather Service Tallahassee Florida
800 AM EDT THU OCT 23 2014

Note: "fair" indicates few or no clouds below 12,000 feet with no
significant weather and/or obstructions to visibility.

!FLZ017-115-028-034-025-231300
...North Florida...

CITY           SKY/WX    TMP DP  RH WIND       PRES   REMARKS
TALLAHASSEE    CLEAR     43  38  82 CALM      30.07R
APALACHICOLA   CLEAR     53  47  79 NE7       30.05R
PERRY          CLEAR     48  45  87 NE3       30.06R
CROSS CITY       N/A     46  43  89 CALM      30.04S
JACKSONVILLE   PTCLDY    52  47  83 N7        30.05R
$$

!FLZ112-006-005-002-011-231300
...Florida Panhandle...

CITY           SKY/WX    TMP DP  RH WIND       PRES   REMARKS
MARIANNA       CLEAR     44  44 100 N3        30.07S
BONIFAY        NOT AVBL
PANAMA CITY NW FAIR      47  43  86 NW3       30.07R
TYNDALL AFB    CLEAR     53  47  79 VRB2      30.07R
TYND DRONE APT FAIR      51  48  88 MISG      30.05R
DE FUNIAK SPR  FAIR      46  44  93 N5        30.09S WCI  43
EGLIN AFB      CLEAR     48  44  84 N9        30.08R WCI  44
DESTIN         CLEAR     56  48  74 NE6       30.08R
HURLBURT       CLEAR     46  41  81 N7        30.07R WCI  42
CRESTVIEW      CLEAR     43  42  97 CALM      30.11R
PENSACOLA      CLEAR     53  45  74 N7        30.08R
$$

!ALZ063-066-231300
...South Alabama...

CITY           SKY/WX    TMP DP  RH WIND       PRES   REMARKS
DOTHAN         CLEAR     44  42  93 NE6       30.13R WCI  41
OZARK CAIRNS   CLEAR     45  42  90 N3        30.10R
FT RUCKER HELI CLEAR     41  39  93 CALM      30.10R
RUCKER HELI 3  FAIR      45  44  96 N5        30.12R WCI  42
RUCKER HELI 2  FAIR      45  42  89 N5        30.10R WCI  43
FLORALA APT    CLEAR     41  39  93 CALM      30.11R
ANDALUSIA      CLEAR     48  41  76 CALM      30.10R
TROY           CLEAR     37  35  92 CALM      30.13R
EUFALA         FAIR      41  39  93 CALM      30.11R
MOBILE         PTCLDY    48  44  86 NE8       30.09R WCI  44
$$

!GAZ120>161-231300
...Southwest and South Central Georgia...

CITY           SKY/WX    TMP DP  RH WIND       PRES   REMARKS
THOMASVILLE    FAIR      48  48 100 NE5       30.09R
BAINBRIDGE     CLEAR     46  45  93 CALM      30.08S
MOODY AFB      CLEAR     46  42  85 NE6       30.08R WCI  43
VALDOSTA       CLEAR     47  42  83 NE5       30.08R WCI  45
MOULTRIE       CLEAR     50  45  81 NE5       30.10R
BLAKELY        CLEAR     43  43 100 CALM        N/A
ALBANY         CLEAR     47  44  90 N3        30.12R
TIFTON         FAIR      46  42  86 CALM      30.09S
FITZGERALD     FAIR      49  41  75 E3        30.12R
CORDELE        FAIR      44  42  91 NE5       30.12R WCI  42
AMERICUS       FAIR      41  41 100 NE6       30.13R WCI  37
HOMERVILLE     FAIR      46  45  93 CALM      30.09R
$$

!GMZ750-755-770-775-231300
...Coastal and Buoy Obs...

STATION/POSITION TIME  TEMP    WIND        PRES    VSBY  WAVE
                       AIR SEA DIR/SP/G                  HT/PER
                 (UTC) (F)     (DEG/KT/KT) (MB)    (MI)  (FT/S)
KEATON BEACH     1200   49      30/  5/  6 1017.6S
CEDAR KEY        1158   57      40/  9/ 12 1017.0R
C TOWER          1200   67      70/ 18/ 19 1016.7F
APALACHICOLA BUO 1200   71 81   60/ 16/ 21 1015.8R         5/ 6
PANAMA CITY BUOY 1147   73 80   80/ 17/ 21 1015.6R         6/ 6
MOBILE BUOY      1139   71 78   60/ 16/ 19 1017.5R         4/ 6
ORANGE BCH AL BU 1200   65 78   30/ 16/ 19 1017.3R         3/ 5
$$



USA.gov is the U.S. government's official web portal to all federal, state and local government web resources and services.